Time,TemperatureF,DewpointF,PressureIn,WindDirection,WindDirectionDegrees,WindSpeedMPH,WindSpeedGustMPH,Humidity,HourlyPrecipIn,Conditions,Clouds,dailyrainin,SoftwareType,DateUTC
2013-05-18 00:02:00,73.0,11.0,29.68,West,260,0.0,2.0,9,0.00,,,0.00,,2013-05-18 06:02:00,
2013-05-18 00:11:00,73.0,11.0,29.68,West,260,0.0,2.0,9,0.00,,,0.00,,2013-05-18 06:11:00,
2013-05-18 00:22:00,73.0,11.0,29.68,WSW,249,0.0,2.0,9,0.00,,,0.00,,2013-05-18 06:22:00,
2013-05-18 00:32:00,73.0,13.0,29.69,SW,218,0.0,3.0,10,0.00,,,0.00,,2013-05-18 06:32:00,
2013-05-18 00:42:00,73.0,13.0,29.69,SW,218,0.0,3.0,10,0.00,,,0.00,,2013-05-18 06:42:00,
2013-05-18 00:52:00,72.0,10.0,29.68,SSW,204,0.0,2.0,9,0.00,,,0.00,,2013-05-18 06:52:00,
2013-05-18 01:01:00,72.0,12.0,29.69,ESE,103,0.0,2.0,10,0.00,,,0.00,,2013-05-18 07:01:00,
2013-05-18 01:12:00,72.0,12.0,29.69,ESE,103,0.0,2.0,10,0.00,,,0.00,,2013-05-18 07:12:00,
2013-05-18 01:21:00,71.0,16.0,29.69,East,93,0.0,3.0,12,0.00,,,0.00,,2013-05-18 07:21:00,
2013-05-18 01:32:00,69.0,18.0,29.69,East,93,0.0,0.0,14,0.00,,,0.00,,2013-05-18 07:32:00,
2013-05-18 01:42:00,69.0,18.0,29.69,East,93,0.0,0.0,14,0.00,,,0.00,,2013-05-18 07:42:00,
2013-05-18 01:52:00,68.0,15.0,29.70,East,100,0.0,1.0,13,0.00,,,0.00,,2013-05-18 07:52:00,
2013-05-18 02:01:00,67.0,19.0,29.70,SE,129,0.0,1.0,16,0.00,,,0.00,,2013-05-18 08:01:00,
2013-05-18 02:11:00,67.0,19.0,29.70,SE,129,0.0,1.0,16,0.00,,,0.00,,2013-05-18 08:11:00,
2013-05-18 02:21:00,66.0,17.0,29.70,North,9,0.0,1.0,15,0.00,,,0.00,,2013-05-18 08:21:00,
2013-05-18 02:32:00,66.0,23.0,29.70,NE,40,0.0,1.0,19,0.00,,,0.00,,2013-05-18 08:32:00,
2013-05-18 02:42:00,66.0,23.0,29.70,NE,40,0.0,1.0,19,0.00,,,0.00,,2013-05-18 08:42:00,
2013-05-18 02:52:00,64.0,20.0,29.70,WSW,252,0.0,0.0,18,0.00,,,0.00,,2013-05-18 08:52:00,
2013-05-18 03:02:00,63.0,16.0,29.71,WSW,253,0.0,0.0,16,0.00,,,0.00,,2013-05-18 09:02:00,
2013-05-18 03:11:00,63.0,16.0,29.71,WSW,253,0.0,0.0,16,0.00,,,0.00,,2013-05-18 09:11:00,
2013-05-18 03:22:00,64.0,20.0,29.71,SW,229,0.0,1.0,18,0.00,,,0.00,,2013-05-18 09:22:00,
2013-05-18 03:32:00,62.0,22.0,29.71,SSW,203,0.0,0.0,21,0.00,,,0.00,,2013-05-18 09:32:00,
2013-05-18 03:43:00,62.0,22.0,29.71,SSW,203,0.0,0.0,21,0.00,,,0.00,,2013-05-18 09:43:00,
2013-05-18 03:53:00,62.0,22.0,29.71,SSW,203,0.0,0.0,21,0.00,,,0.00,,2013-05-18 09:53:00,
2013-05-18 04:03:00,62.0,22.0,29.71,SSW,203,0.0,0.0,21,0.00,,,0.00,,2013-05-18 10:03:00,
2013-05-18 07:21:00,52.0,31.0,29.76,SSW,212,0.0,0.0,44,0.00,,,0.00,,2013-05-18 13:21:00,
2013-05-18 07:33:00,52.0,32.0,29.76,SSW,212,0.0,0.0,47,0.00,,,0.00,,2013-05-18 13:33:00,
2013-05-18 07:52:00,52.0,33.0,29.76,SSW,212,0.0,0.0,49,0.00,,,0.00,,2013-05-18 13:52:00,
2013-05-18 08:03:00,54.0,39.0,29.77,SSW,212,0.0,0.0,56,0.00,,,0.00,,2013-05-18 14:03:00,
2013-05-18 08:22:00,56.0,34.0,29.77,SSW,212,0.0,0.0,43,0.00,,,0.00,,2013-05-18 14:22:00,
2013-05-18 08:33:00,59.0,33.0,29.77,SSW,212,0.0,0.0,38,0.00,,,0.00,,2013-05-18 14:33:00,
2013-05-18 08:42:00,59.0,33.0,29.77,SSW,212,0.0,0.0,38,0.00,,,0.00,,2013-05-18 14:42:00,
2013-05-18 08:54:00,66.0,35.0,29.77,SSW,212,0.0,0.0,32,0.00,,,0.00,,2013-05-18 14:54:00,
2013-05-18 09:03:00,70.0,33.0,29.77,ESE,122,0.0,1.0,25,0.00,,,0.00,,2013-05-18 15:03:00,
2013-05-18 09:13:00,70.0,33.0,29.77,ESE,122,0.0,1.0,25,0.00,,,0.00,,2013-05-18 15:13:00,
2013-05-18 09:23:00,73.0,36.0,29.77,ESE,111,0.0,1.0,26,0.00,,,0.00,,2013-05-18 15:23:00,
2013-05-18 09:33:00,77.0,37.0,29.77,SSE,152,0.0,1.0,24,0.00,,,0.00,,2013-05-18 15:33:00,
2013-05-18 09:53:00,79.0,30.0,29.76,ENE,57,2.0,5.0,17,0.00,,,0.00,,2013-05-18 15:53:00,
2013-05-18 10:02:00,80.0,31.0,29.76,SSW,198,1.0,9.0,17,0.00,,,0.00,,2013-05-18 16:02:00,
2013-05-18 10:13:00,80.0,31.0,29.76,SSW,198,1.0,9.0,17,0.00,,,0.00,,2013-05-18 16:13:00,
2013-05-18 10:22:00,81.0,32.0,29.76,NNW,335,1.0,6.0,17,0.00,,,0.00,,2013-05-18 16:22:00,
2013-05-18 10:33:00,82.0,31.0,29.75,WNW,291,1.0,6.0,16,0.00,,,0.00,,2013-05-18 16:33:00,
2013-05-18 10:42:00,82.0,31.0,29.75,WNW,291,1.0,6.0,16,0.00,,,0.00,,2013-05-18 16:42:00,
2013-05-18 10:52:00,82.0,30.0,29.75,WSW,257,1.0,5.0,15,0.00,,,0.00,,2013-05-18 16:52:00,
2013-05-18 11:02:00,83.0,29.0,29.75,ESE,111,1.0,4.0,14,0.00,,,0.00,,2013-05-18 17:02:00,
2013-05-18 11:12:00,83.0,29.0,29.75,ESE,111,1.0,4.0,14,0.00,,,0.00,,2013-05-18 17:12:00,
2013-05-18 11:22:00,84.0,30.0,29.74,NE,49,1.0,8.0,14,0.00,,,0.00,,2013-05-18 17:22:00,
2013-05-18 11:32:00,84.0,28.0,29.74,SW,231,2.0,7.0,13,0.00,,,0.00,,2013-05-18 17:32:00,
2013-05-18 11:42:00,84.0,28.0,29.74,SW,231,2.0,7.0,13,0.00,,,0.00,,2013-05-18 17:42:00,
2013-05-18 11:52:00,84.0,30.0,29.73,SE,126,2.0,9.0,14,0.00,,,0.00,,2013-05-18 17:52:00,
2013-05-18 12:01:00,86.0,29.0,29.72,WSW,239,0.0,6.0,13,0.00,,,0.00,,2013-05-18 18:01:00,
2013-05-18 12:12:00,86.0,29.0,29.72,WSW,239,0.0,6.0,13,0.00,,,0.00,,2013-05-18 18:12:00,
2013-05-18 12:21:00,86.0,27.0,29.72,West,260,1.0,6.0,12,0.00,,,0.00,,2013-05-18 18:21:00,
2013-05-18 12:32:00,87.0,26.0,29.72,SSW,204,1.0,5.0,11,0.00,,,0.00,,2013-05-18 18:32:00,
2013-05-18 12:42:00,87.0,26.0,29.72,SSW,204,1.0,5.0,11,0.00,,,0.00,,2013-05-18 18:42:00,
2013-05-18 12:52:00,87.0,26.0,29.71,SE,132,1.0,6.0,11,0.00,,,0.00,,2013-05-18 18:52:00,
2013-05-18 13:02:00,87.0,26.0,29.70,NNW,327,2.0,9.0,11,0.00,,,0.00,,2013-05-18 19:02:00,
2013-05-18 13:12:00,87.0,26.0,29.70,NNW,327,2.0,9.0,11,0.00,,,0.00,,2013-05-18 19:12:00,
2013-05-18 13:22:00,87.0,30.0,29.70,South,180,1.0,7.0,13,0.00,,,0.00,,2013-05-18 19:22:00,
2013-05-18 13:32:00,89.0,23.0,29.69,WNW,290,1.0,10.0,9,0.00,,,0.00,,2013-05-18 19:32:00,
2013-05-18 13:42:00,89.0,23.0,29.69,WNW,290,1.0,10.0,9,0.00,,,0.00,,2013-05-18 19:42:00,
2013-05-18 13:52:00,89.0,25.0,29.68,East,83,2.0,7.0,10,0.00,,,0.00,,2013-05-18 19:52:00,
2013-05-18 14:02:00,89.0,25.0,29.67,SSE,156,2.0,11.0,10,0.00,,,0.00,,2013-05-18 20:02:00,
2013-05-18 14:11:00,89.0,25.0,29.67,SSE,156,2.0,11.0,10,0.00,,,0.00,,2013-05-18 20:11:00,
2013-05-18 14:22:00,89.0,23.0,29.67,WSW,242,2.0,11.0,9,0.00,,,0.00,,2013-05-18 20:22:00,
2013-05-18 14:32:00,89.0,23.0,29.66,SSW,196,1.0,6.0,9,0.00,,,0.00,,2013-05-18 20:32:00,
2013-05-18 14:42:00,89.0,23.0,29.66,SSW,196,1.0,6.0,9,0.00,,,0.00,,2013-05-18 20:42:00,
2013-05-18 14:52:00,90.0,21.0,29.66,ENE,74,1.0,7.0,8,0.00,,,0.00,,2013-05-18 20:52:00,
2013-05-18 15:01:00,90.0,18.0,29.65,North,352,1.0,7.0,7,0.00,,,0.00,,2013-05-18 21:01:00,
2013-05-18 15:12:00,90.0,18.0,29.65,North,352,1.0,7.0,7,0.00,,,0.00,,2013-05-18 21:12:00,
2013-05-18 15:21:00,90.0,21.0,29.64,ESE,104,2.0,6.0,8,0.00,,,0.00,,2013-05-18 21:21:00,
2013-05-18 15:32:00,91.0,18.0,29.64,SE,131,2.0,10.0,7,0.00,,,0.00,,2013-05-18 21:32:00,
2013-05-18 15:43:00,91.0,18.0,29.64,SE,131,2.0,10.0,7,0.00,,,0.00,,2013-05-18 21:43:00,
2013-05-18 15:53:00,90.0,18.0,29.63,West,272,1.0,8.0,7,0.00,,,0.00,,2013-05-18 21:53:00,
2013-05-18 16:03:00,90.0,14.0,29.63,NE,48,3.0,9.0,6,0.00,,,0.00,,2013-05-18 22:03:00,
2013-05-18 16:12:00,90.0,14.0,29.63,NE,48,3.0,9.0,6,0.00,,,0.00,,2013-05-18 22:12:00,
2013-05-18 16:23:00,90.0,10.0,29.62,WSW,246,3.0,8.0,5,0.00,,,0.00,,2013-05-18 22:23:00,
2013-05-18 16:33:00,90.0,5.0,29.62,WSW,255,1.0,8.0,4,0.00,,,0.00,,2013-05-18 22:33:00,
2013-05-18 16:42:00,90.0,10.0,29.61,SW,216,3.0,10.0,5,0.00,,,0.00,,2013-05-18 22:42:00,
2013-05-18 16:52:00,90.0,10.0,29.61,SW,216,3.0,10.0,5,0.00,,,0.00,,2013-05-18 22:52:00,
2013-05-18 17:01:00,89.0,4.0,29.61,SSW,193,1.0,8.0,4,0.00,,,0.00,,2013-05-18 23:01:00,
2013-05-18 17:22:00,88.0,9.0,29.60,SSW,196,1.0,11.0,5,0.00,,,0.00,,2013-05-18 23:22:00,
2013-05-18 17:32:00,88.0,9.0,29.60,SE,130,2.0,6.0,5,0.00,,,0.00,,2013-05-18 23:32:00,
2013-05-18 17:41:00,88.0,9.0,29.60,SE,130,2.0,6.0,5,0.00,,,0.00,,2013-05-18 23:41:00,
2013-05-18 17:53:00,88.0,4.0,29.59,NW,304,3.0,9.0,4,0.00,,,0.00,,2013-05-18 23:53:00,
2013-05-18 18:01:00,87.0,8.0,29.60,West,264,4.0,11.0,5,0.00,,,0.00,,2013-05-19 00:01:00,
2013-05-18 18:11:00,87.0,8.0,29.60,West,264,4.0,11.0,5,0.00,,,0.00,,2013-05-19 00:11:00,
2013-05-18 18:21:00,86.0,11.0,29.59,NW,304,1.0,10.0,6,0.00,,,0.00,,2013-05-19 00:21:00,
2013-05-18 18:32:00,86.0,15.0,29.59,WSW,255,3.0,12.0,7,0.00,,,0.00,,2013-05-19 00:32:00,
2013-05-18 18:41:00,86.0,15.0,29.59,WSW,255,3.0,12.0,7,0.00,,,0.00,,2013-05-19 00:41:00,
2013-05-18 18:52:00,84.0,16.0,29.59,NNW,346,1.0,7.0,8,0.00,,,0.00,,2013-05-19 00:52:00,
2013-05-18 19:01:00,84.0,13.0,29.60,SW,221,1.0,5.0,7,0.00,,,0.00,,2013-05-19 01:01:00,
2013-05-18 19:11:00,84.0,13.0,29.60,SW,221,1.0,5.0,7,0.00,,,0.00,,2013-05-19 01:11:00,
2013-05-18 19:21:00,83.0,13.0,29.60,West,276,1.0,8.0,7,0.00,,,0.00,,2013-05-19 01:21:00,
2013-05-18 19:32:00,82.0,12.0,29.60,West,274,0.0,6.0,7,0.00,,,0.00,,2013-05-19 01:32:00,
2013-05-18 19:42:00,82.0,12.0,29.60,West,274,0.0,6.0,7,0.00,,,0.00,,2013-05-19 01:42:00,
2013-05-18 19:52:00,82.0,8.0,29.61,West,278,2.0,7.0,6,0.00,,,0.00,,2013-05-19 01:52:00,
2013-05-18 20:01:00,81.0,11.0,29.61,ENE,72,0.0,4.0,7,0.00,,,0.00,,2013-05-19 02:01:00,
2013-05-18 20:11:00,81.0,11.0,29.61,ENE,72,0.0,4.0,7,0.00,,,0.00,,2013-05-19 02:11:00,
2013-05-18 20:21:00,80.0,16.0,29.62,NNE,26,0.0,5.0,9,0.00,,,0.00,,2013-05-19 02:21:00,
2013-05-18 20:32:00,79.0,15.0,29.62,ESE,120,0.0,3.0,9,0.00,,,0.00,,2013-05-19 02:32:00,
2013-05-18 20:42:00,79.0,15.0,29.62,ESE,120,0.0,3.0,9,0.00,,,0.00,,2013-05-19 02:42:00,
2013-05-18 20:52:00,77.0,16.0,29.62,NE,49,0.0,2.0,10,0.00,,,0.00,,2013-05-19 02:52:00,
2013-05-18 21:01:00,76.0,16.0,29.62,ESE,108,0.0,1.0,10,0.00,,,0.00,,2013-05-19 03:01:00,
2013-05-18 21:11:00,76.0,16.0,29.62,ESE,108,0.0,1.0,10,0.00,,,0.00,,2013-05-19 03:11:00,
2013-05-18 21:22:00,74.0,16.0,29.63,East,91,0.0,1.0,11,0.00,,,0.00,,2013-05-19 03:22:00,
2013-05-18 21:33:00,74.0,18.0,29.64,SSE,162,0.0,3.0,12,0.00,,,0.00,,2013-05-19 03:33:00,
2013-05-18 21:42:00,74.0,18.0,29.64,SSE,162,0.0,3.0,12,0.00,,,0.00,,2013-05-19 03:42:00,
2013-05-18 21:53:00,74.0,16.0,29.65,WSW,245,0.0,1.0,11,0.00,,,0.00,,2013-05-19 03:53:00,
2013-05-18 22:02:00,74.0,16.0,29.65,East,79,0.0,3.0,11,0.00,,,0.00,,2013-05-19 04:02:00,
2013-05-18 22:12:00,74.0,16.0,29.65,East,79,0.0,3.0,11,0.00,,,0.00,,2013-05-19 04:12:00,
2013-05-18 22:23:00,74.0,16.0,29.66,ESE,106,0.0,3.0,11,0.00,,,0.00,,2013-05-19 04:23:00,
2013-05-18 22:33:00,74.0,16.0,29.66,ESE,106,0.0,3.0,11,0.00,,,0.00,,2013-05-19 04:33:00,
2013-05-18 22:42:00,74.0,16.0,29.66,ESE,106,0.0,3.0,11,0.00,,,0.00,,2013-05-19 04:42:00,
2013-05-18 22:52:00,72.0,17.0,29.67,SE,124,0.0,1.0,12,0.00,,,0.00,,2013-05-19 04:52:00,
2013-05-18 23:02:00,72.0,18.0,29.67,SE,132,0.0,1.0,13,0.00,,,0.00,,2013-05-19 05:02:00,
2013-05-18 23:12:00,72.0,18.0,29.67,SE,132,0.0,1.0,13,0.00,,,0.00,,2013-05-19 05:12:00,
2013-05-18 23:22:00,69.0,22.0,29.67,SE,131,0.0,0.0,17,0.00,,,0.00,,2013-05-19 05:22:00,
2013-05-18 23:32:00,68.0,19.0,29.68,ESE,106,0.0,0.0,15,0.00,,,0.00,,2013-05-19 05:32:00,
2013-05-18 23:42:00,67.0,19.0,29.68,ESE,105,0.0,0.0,16,0.00,,,0.00,,2013-05-19 05:42:00,
2013-05-18 23:51:00,67.0,19.0,29.68,ESE,105,0.0,0.0,16,0.00,,,0.00,,2013-05-19 05:51:00,